City of Colorado Springs Municipal Airport
KCOS : now visible

Airfield :











YOU CAN JOIN US ON...

 
LOGIN :

Register | Disclaimer

   EN    FR    IT 

 









Legend :    VFR   Marginal VFR   IFR   Intensive IFR   Very Intensive IFR
Visi :
Ceiling :
>= 8 km
>= 3000ft
5 to 8 km
1000 to 3000 ft
1500m to 5 km
500 to 1000 ft
800 to 1500m
200 to 500 ft
< 800m
< 200 ft
Symbols :   Thunderstorms  Fog  Heavy snow  Heavy precipitations  Wind > 20 kt







- Airport Elevation : 6187 ft
- IATA code : COS


KCOS - City of Colorado Springs Municipal

CURRENT METAR :
  • 162154Z 18010G18KT 10SM BKN110 BKN160 BKN250 28/05 A3001 RMK AO2 SLP073 T02780050

EXPIRED METARs :
  • 162054Z 18014G19KT 10SM SCT110 BKN160 BKN250 28/05 A3002 RMK AO2 SLP078 T02780050 56015
  • 161954Z 17014G24KT 10SM SCT110 SCT160 BKN250 28/05 A3003 RMK AO2 SLP079 T02780050

TAF KCOS
Valid from the 16 at 18:00 until the 17 at 18:00 UTC


161727Z 1618/1718 17011KT P6SM SCT110 BKN200
FM170200 13006KT P6SM SCT100 BKN200
FM170400 02006KT P6SM SCT100 BKN200
FM171500 VRB05KT P6SM SCT250
No reported NOTAMs for that airfield.



MET'MAP, your aeronautical weather chart ! - Copyright ORBIFLY December 2007 - Disclaimer

ORBIFLY MET'MAP TEAM :

Programming & Development : Alexandra Zaïnal
Concept & Development : Baudouin d'Aumeries
Co-Development & Prog : Marc-Olivier Méhu
Technical & hardware support : Manuel Goepfert

Contact : metmap@orbifly.com




SOURCES & CREDITS :

   NOAA       Earth
Advisory